Tracking 22458 objects as of 2-Mar-2021
HD Live streaming from Space Station
objects crossing your sky now

CZ-4 DEB

Track CZ-4 DEB now!
10-day predictions


NORAD ID: 37615
Int'l Code: 1990-081DB
Perigee: 799.3 km
Apogee: 819.5 km
Inclination: 98.5 °
Period: 100.9 minutes
Semi major axis: 7180 km
RCS: 0.0076 m2 (small)
Launch date: September 3, 1990
Source: People's Republic of China (PRC)
Launch site: Taiyaun Space Center, China (TSC)

Note: This is SATELLITE DEBRIS
aabbcc
Your satellite tracking list
Your tracking list is empty




NASA's NSSDC Master Catalog

Two Line Element Set (TLE):
1 37615U 90081DB  21060.49017291  .00000322  00000-0  15039-3 0  9990
2 37615  98.5130  75.1314 0014091 197.3799 162.6901 14.26857211348356
Source of the keplerian elements: AFSPC